sat.trackr.live / text

‹ back to catalog

COSMOS 2595 (MOZHAETS 6)

NORAD 65589 · 2025-206A

PAYLOAD ACTIVE UNKNOWN

§ Identity

Operator
Country
CIS
Launch date
2025-09-13
Launch site
PLMSC
Launch vehicle
Mass (kg)
RCS (m²)

External: N2YO · Heavens-Above · Gunter

§ Orbital elements

Epoch: 2026-09-20T03:03:52.380576Z

Period
670.07 min
Inclination
64.5785°
Eccentricity
0.0066143
Mean motion
2.14901440 rev/d
Perigee alt
18,819.5 km
Apogee alt
19,155.1 km
Semi-major
25,365.4 km
B*
0.0000e+0
RAAN
311.4591°
Arg perigee
304.1664°
Mean anomaly
55.2813°
Rev number
799

§ Raw data

COSMOS 2595 (MOZHAETS 6)1 65589U 25206A   26263.12768959 -.00000026  00000+0  00000+0 0  99912 65589  64.5785 311.4591 0066143 304.1664  55.2813  2.14901440  7992

JSON: /api/v1/satellites/65589 · /tle

For live sub-satellite position, see the globe view (requires WebGL).

§ Visibility from observer

Set your observer location to see the next 7 days of passes ≥ 10°. The values pass through the URL so the page stays shareable.

No JS? Fill the form by hand. The geolocation button needs JavaScript.